This demonstration page uses our WeatherBlox Daily Observations layout. Learn more.

Left ArrowRight Arrow

41.12389, -100.76542

Hourly Observations for December 25, 2016

Temp ( °F °C ) Dew Point ( °F °C ) Humidity (%) Winds ( mph kmh ) Pressure ( in mb ) Visibility ( mi km ) Precip ( " mm )
12:53 am 00:53 Clear 28 -2.2 26 -3.3 92 92 ESE 16 26 29.81 1009 7 11 0.00 0.00
1:26 am 01:26 Partly Cloudy with Mist and Fog 29 -1.7 27 -2.8 92 92 ESE 16 26 29.88 1012 5 8 0.00 0.00
1:39 am 01:39 Mostly Cloudy with Mist and Fog 29 -1.7 28 -2.2 96 96 ESE 14 22 29.88 1012 5 8 0.00 0.00
1:53 am 01:53 Cloudy with Mist and Fog 30 -1.1 29 -1.7 96 96 ESE 14 22 29.78 1009 4 6 0.00 0.00
2:45 am 02:45 Cloudy with Mist and Fog 34 1 30 -1 87 87 ESE 16 26 29.83 1010 2 3 0.00 0.00
2:53 am 02:53 Cloudy with Mist and Fog 33 0.6 32 0 96 96 ESE 15 24 29.75 1008 2 2 0.00 0.00
3:00 am 03:00 Cloudy with Mist and Fog 34 1 32 0 93 93 ESE 14 22 29.83 1010 1 1 0.00 0.00
3:53 am 03:53 Mostly Cloudy with Fog 33 0.6 32 0 96 96 ESE 13 20 29.75 1007 1 1 0.00 0.00
4:50 am 04:50 Mostly Cloudy with Fog 34 1 34 1 100 100 ESE 13 20 29.77 1008 0 0 0.00 0.00
4:53 am 04:53 Mostly Cloudy with Fog 33 0.6 33 0.6 100 100 ESE 15 24 29.71 1006 0 0 0.00 0.00
5:18 am 05:18 Mostly Cloudy with Fog 33 0.6 32 0 96 96 ESE 16 26 29.74 1007 1 1 0.00 0.00
5:53 am 05:53 Mostly Cloudy with Mist and Fog 34 1.1 33 0.6 97 97 ESE 16 26 29.70 1006 1 1 0.00 0.00
6:53 am 06:53 Mostly Cloudy with Mist and Fog 34 1.1 34 1.1 100 100 ESE 17 28 29.67 1005 1 1 0.00 0.00
7:28 am 07:28 Mostly Cloudy with Mist and Fog 36 2 34 1 93 93 ESE 17 28 29.65 1004 1 2 0.00 0.00
7:37 am 07:37 Mostly Cloudy with Mist and Fog 35 1.7 34 1.1 96 96 ESE 18 30 29.65 1004 1 1 0.00 0.00
7:53 am 07:53 Mostly Cloudy with Fog 35 1.7 35 1.7 100 100 ESE 14 22 29.61 1003 1 1 0.00 0.00
8:53 am 08:53 Mostly Cloudy with Fog 38 3.3 37 2.8 97 97 ESE 16 26 29.55 1001 1 1 0.00 0.03
9:03 am 09:03 Mostly Cloudy with Fog 38 3.3 37 2.8 97 97 ESE 17 28 29.59 1002 0 0 0.00 0.00
9:50 am 09:50 Mostly Cloudy with Nearby Thunderstorms 37 3 37 3 100 100 ESE 21 33 29.53 1000 1 1 0.00 0.00
9:53 am 09:53 Mostly Cloudy with Nearby Thunderstorms 38 3.3 38 3.3 100 100 ESE 18 30 29.50 999 1 1 0.02 0.51
10:17 am 10:17 Windy with Storms Likely 37 3 37 3 100 100 WNW 20 31 29.59 1002 1 2 0.00 0.00
10:29 am 10:29 Cloudy with Strong Thunderstorms 40 4.4 39 3.9 97 97 WNW 15 24 29.56 1001 1 1 0.14 3.56
10:38 am 10:38 Cloudy with Strong Thunderstorms 39 4 37 3 93 93 W 6 9 29.56 1001 1 1 0.00 0.00
10:46 am 10:46 Cloudy with Strong Thunderstorms 39 4 39 4 100 100 N 9 15 29.56 1001 2 2 0.00 0.00
10:48 am 10:48 Cloudy with Nearby Thunderstorms 39 4 39 4 100 100 N 8 13 29.53 1000 2 3 0.00 0.00
10:53 am 10:53 Cloudy with Nearby Thunderstorms 40 4.4 39 3.9 97 97 NNE 9 15 29.48 998 2 3 0.51 12.95
10:57 am 10:57 Cloudy with Rain 40 4.4 39 3.9 97 97 NE 15 24 29.47 998 3 5 0.01 0.25
11:53 am 11:53 Cloudy 42 5.6 40 4.4 92 92 E 15 24 29.38 995 10 16 0.03 0.76
12:53 pm 12:53 Mostly Cloudy 46 7.8 44 6.7 93 93 E 21 33 29.23 990 10 16 0.01 0.25
1:00 pm 13:00 Mostly Cloudy 46 8 45 7 93 93 ESE 21 33 29.23 990 10 16 0.00 0.00
1:19 pm 13:19 Mostly Cloudy 47 8.3 46 7.8 97 97 ESE 22 35 29.21 989 10 16 0.00 0.00
1:39 pm 13:39 Partly Cloudy 48 8.9 46 7.8 93 93 SE 17 28 29.21 989 10 16 0.00 0.00
1:53 pm 13:53 Mostly Sunny 50 10 46 7.8 86 86 ESE 24 39 29.18 988 10 16 0.00 0.00
2:53 pm 14:53 Partly Cloudy 51 10.6 42 5.6 71 71 SSE 18 30 29.12 986 10 16 0.00 0.00
3:53 pm 15:53 Sunny 50 10 22 -5.6 33 33 S 25 41 29.11 986 10 16 0.00 0.00
4:53 pm 16:53 Mostly Cloudy 47 8.3 22 -5.6 37 37 S 15 24 29.09 985 10 16 0.00 0.00
5:10 pm 17:10 Mostly Cloudy 34 1 25 -4 70 70 W 30 48 29.21 989 10 16 0.00 0.00
5:18 pm 17:18 Mostly Cloudy 32 0 23 -5 69 69 WNW 36 57 29.26 991 10 16 0.00 0.00
5:53 pm 17:53 Windy with Snow Likely 27 -2.8 17 -8.3 66 66 W 32 52 29.31 992 7 11 0.00 0.03
6:42 pm 18:42 Cloudy 25 -4 16 -9 69 69 W 37 59 29.53 1000 10 16 0.00 0.00
6:53 pm 18:53 Mostly Cloudy 23 -5 14 -10 68 68 W 38 61 29.46 998 10 16 0.00 0.03
7:01 pm 19:01 Mostly Cloudy 23 -5 14 -10 68 68 W 33 54 29.56 1001 10 16 0.00 0.00
7:53 pm 19:53 Partly Cloudy 21 -6.1 12 -11.1 68 68 W 31 50 29.58 1002 10 16 0.00 0.00
8:53 pm 20:53 Mostly Cloudy 21 -6.1 11 -11.7 65 65 W 26 43 29.63 1003 10 16 0.00 0.00
9:53 pm 21:53 Cloudy 22 -5.6 10 -12.2 60 60 W 25 41 29.68 1005 10 16 0.00 0.00
10:53 pm 22:53 Mostly Cloudy 22 -5.6 7 -13.9 52 52 WNW 30 48 29.73 1007 10 16 0.00 0.00
11:53 pm 23:53 Mostly Clear 22 -5.6 6 -14.4 50 50 WNW 31 50 29.75 1007 10 16 0.00 0.00

Powered by AerisWeather